Weather History for Kake, AK

Change the Weather History Date:

Monday, February 11, 2013

  Actual Average Record
Temperature  
Mean Temperature 37 °F -  
Max Temperature 39 °F 36 °F 51 °F (2006)
Min Temperature 35 °F 28 °F 19 °F (2009)
Degree Days  
Heating Degree Days 28    
Moisture  
Dew Point 34 °F    
Average Humidity 87    
Maximum Humidity 93    
Minimum Humidity 81    
Precipitation  
Precipitation 0.05 in - - ()
Sea Level Pressure  
Sea Level Pressure 29.94 in    
Wind  
Wind Speed 11 mph (ESE)    
Max Wind Speed 16 mph    
Max Gust Speed 22 mph    
Visibility 10 miles    
Events      
Averages and records for this station are not official NWS values.
T = Trace of Precipitation, MM = Missing Value Source: NWS Daily Summary

Daily Weather History Graph

Daily Weather History Graph

Search for Another Location

Airport:

Trip Planner

Search our weather history database for the weather conditions in past years. The results will help you decide how hot, cold, wet, or windy it might be!

Date:

Astronomy

Feb. 11, 2013 Rise Set
Actual Time 7:31 AM AKST 4:48 PM AKST
Civil Twilight 6:51 AM AKST 5:29 PM AKST
Nautical Twilight 6:06 AM AKST 6:14 PM AKST
Astronomical Twilight 5:22 AM AKST 6:58 PM AKST
Moon 7:30 AM AKST (2/11) 7:30 PM AKST (2/11)
Length of Visible Light 10h 37m
Length of Day
9h 16m
Waxing Crescent, 3% of the Moon is Illuminated
Feb 11
Waxing Crescent
Feb 17
First Quarter
Feb 25
Full
Mar 4
Last Quarter
Mar 11
New

Hourly Weather History & Observations

Time (AKST) Temp. Windchill Dew Point Humidity Pressure Visibility Wind Dir Wind Speed Gust Speed Precip Events Conditions
12:16 AM 37.4 °F 29.8 °F 33.8 °F 87% 30.01 in 10.0 mi SSE 11.5 mph 16.1 mph N/A   Overcast
12:36 AM 37.4 °F 29.3 °F 33.8 °F 87% 30.01 in 10.0 mi SSE 12.7 mph 17.3 mph 0.01 in   Overcast
12:56 AM 37.4 °F 29.8 °F 33.8 °F 87% 30.01 in 10.0 mi SSE 11.5 mph 17.3 mph 0.03 in   Overcast
1:16 AM 37.4 °F 31.4 °F 33.8 °F 87% 30.01 in 10.0 mi SE 8.1 mph 19.6 mph N/A   Overcast
1:36 AM 37.4 °F 30.3 °F 33.8 °F 87% 30.00 in 10.0 mi SE 10.4 mph - 0.01 in   Overcast
1:56 AM 37.4 °F 29.8 °F 33.8 °F 87% 29.99 in 10.0 mi SE 11.5 mph 17.3 mph 0.01 in   Overcast
2:36 AM 37.4 °F 28.2 °F 33.8 °F 87% 29.98 in 10.0 mi SE 16.1 mph 21.9 mph N/A   Overcast
2:56 AM 37.4 °F 29.8 °F 33.8 °F 87% 29.98 in 10.0 mi SE 11.5 mph - N/A   Overcast
3:16 AM 37.4 °F 29.8 °F 33.8 °F 87% 29.97 in 10.0 mi SE 11.5 mph 17.3 mph 0.01 in   Overcast
3:36 AM 37.4 °F 28.2 °F 33.8 °F 87% 29.97 in 10.0 mi SE 16.1 mph 20.7 mph 0.01 in   Overcast
3:56 AM 37.4 °F 28.9 °F 33.8 °F 87% 29.97 in 10.0 mi SE 13.8 mph 20.7 mph 0.01 in   Overcast
4:16 AM 37.4 °F 28.9 °F 33.8 °F 87% 29.97 in 10.0 mi SE 13.8 mph 20.7 mph N/A   Overcast
4:36 AM 37.4 °F 29.8 °F 33.8 °F 87% 29.97 in 10.0 mi SE 11.5 mph 17.3 mph N/A   Overcast
4:56 AM 37.4 °F 29.3 °F 33.8 °F 87% 29.97 in 10.0 mi SE 12.7 mph 18.4 mph N/A   Overcast
5:16 AM 37.4 °F 29.3 °F 33.8 °F 87% 29.96 in 10.0 mi SE 12.7 mph 16.1 mph N/A   Overcast
5:36 AM 37.4 °F 29.3 °F 33.8 °F 87% 29.96 in 10.0 mi SE 12.7 mph 21.9 mph N/A   Mostly Cloudy
5:56 AM 37.4 °F 28.9 °F 33.8 °F 87% 29.96 in 10.0 mi ESE 13.8 mph - N/A   Overcast
6:16 AM 37.4 °F 28.9 °F 33.8 °F 87% 29.97 in 10.0 mi ESE 13.8 mph - N/A   Overcast
6:36 AM 35.6 °F 26.6 °F 33.8 °F 93% 29.96 in 10.0 mi ESE 13.8 mph 18.4 mph N/A   Overcast
6:56 AM 35.6 °F 26.6 °F 33.8 °F 93% 29.96 in 10.0 mi ESE 13.8 mph 21.9 mph N/A   Overcast
7:16 AM 37.4 °F 28.2 °F 33.8 °F 87% 29.97 in 10.0 mi ESE 16.1 mph 21.9 mph N/A   Overcast
7:36 AM 35.6 °F 27.1 °F 33.8 °F 93% 29.97 in 9.0 mi ESE 12.7 mph 17.3 mph N/A   Overcast
7:56 AM 37.4 °F 29.3 °F 32.0 °F 81% 29.97 in 10.0 mi SE 12.7 mph 20.7 mph N/A   Overcast
8:16 AM 37.4 °F 28.9 °F 33.8 °F 87% 29.97 in 10.0 mi SE 13.8 mph - N/A   Overcast
8:36 AM 37.4 °F 29.8 °F 33.8 °F 87% 29.97 in 10.0 mi SE 11.5 mph 18.4 mph N/A   Mostly Cloudy
8:56 AM 37.4 °F 30.3 °F 33.8 °F 87% 29.97 in 10.0 mi SE 10.4 mph - N/A   Mostly Cloudy
9:16 AM 37.4 °F 29.3 °F 33.8 °F 87% 29.98 in 10.0 mi SE 12.7 mph - N/A   Mostly Cloudy
9:36 AM 37.4 °F 30.8 °F 33.8 °F 87% 29.98 in 10.0 mi ESE 9.2 mph 16.1 mph N/A   Mostly Cloudy
9:56 AM 37.4 °F 29.8 °F 33.8 °F 87% 29.98 in 10.0 mi East 11.5 mph 17.3 mph N/A   Mostly Cloudy
10:16 AM 37.4 °F 29.3 °F 33.8 °F 87% 29.98 in 10.0 mi East 12.7 mph 17.3 mph N/A   Overcast
10:36 AM 37.4 °F 31.4 °F 33.8 °F 87% 29.98 in 10.0 mi ESE 8.1 mph - N/A   Overcast
10:56 AM 37.4 °F 30.3 °F 35.6 °F 93% 29.99 in 10.0 mi ESE 10.4 mph - N/A   Overcast
11:16 AM 37.4 °F 30.3 °F 33.8 °F 87% 29.99 in 10.0 mi ESE 10.4 mph - N/A   Mostly Cloudy
11:36 AM 37.4 °F 30.3 °F 33.8 °F 87% 29.99 in 10.0 mi SE 10.4 mph - N/A   Mostly Cloudy
11:56 AM 37.4 °F 30.3 °F 33.8 °F 87% 29.99 in 10.0 mi SE 10.4 mph - N/A   Scattered Clouds
12:16 PM 37.4 °F 30.3 °F 33.8 °F 87% 29.98 in 10.0 mi SE 10.4 mph 18.4 mph N/A   Mostly Cloudy
12:36 PM 39.2 °F 32.0 °F 35.6 °F 87% 29.98 in 10.0 mi ESE 11.5 mph 16.1 mph N/A   Scattered Clouds
12:56 PM 39.2 °F 33.6 °F 35.6 °F 87% 29.98 in 10.0 mi SE 8.1 mph - N/A   Mostly Cloudy
1:56 PM 39.2 °F 32.0 °F 35.6 °F 87% 29.97 in 10.0 mi SE 11.5 mph - N/A   Mostly Cloudy
2:16 PM 39.2 °F 31.2 °F 35.6 °F 87% 29.97 in 10.0 mi SE 13.8 mph - N/A   Mostly Cloudy
2:36 PM 39.2 °F 31.6 °F 35.6 °F 87% 29.97 in 10.0 mi SE 12.7 mph - N/A   Mostly Cloudy
2:56 PM 39.2 °F 33.6 °F 35.6 °F 87% 29.96 in 10.0 mi SE 8.1 mph - N/A   Mostly Cloudy
3:16 PM 39.2 °F 33.6 °F 35.6 °F 87% 29.96 in 10.0 mi SE 8.1 mph - N/A   Overcast
3:36 PM 39.2 °F 33.6 °F 35.6 °F 87% 29.96 in 10.0 mi ESE 8.1 mph - N/A   Overcast
3:56 PM 39.2 °F 33.0 °F 35.6 °F 87% 29.96 in 10.0 mi SE 9.2 mph - N/A   Mostly Cloudy
4:16 PM 37.4 °F 29.8 °F 33.8 °F 87% 29.95 in 10.0 mi ESE 11.5 mph - N/A   Mostly Cloudy
4:36 PM 37.4 °F 30.8 °F 33.8 °F 87% 29.94 in 10.0 mi ESE 9.2 mph - N/A   Scattered Clouds
4:56 PM 37.4 °F 31.4 °F 33.8 °F 87% 29.94 in 10.0 mi ESE 8.1 mph - N/A   Mostly Cloudy
5:16 PM 37.4 °F 30.8 °F 33.8 °F 87% 29.93 in 10.0 mi ESE 9.2 mph - N/A   Overcast
5:36 PM 37.4 °F 31.4 °F 33.8 °F 87% 29.93 in 10.0 mi ESE 8.1 mph - N/A   Overcast
5:56 PM 37.4 °F 31.4 °F 33.8 °F 87% 29.93 in 10.0 mi SE 8.1 mph - N/A   Overcast
6:16 PM 37.4 °F 31.4 °F 33.8 °F 87% 29.92 in 10.0 mi ESE 8.1 mph - N/A   Overcast
6:36 PM 35.6 °F 30.7 °F 33.8 °F 93% 29.91 in 10.0 mi East 5.8 mph - N/A   Overcast
6:56 PM 35.6 °F 31.7 °F 32.0 °F 87% 29.91 in 10.0 mi ESE 4.6 mph - N/A   Overcast
7:16 PM 35.6 °F 31.7 °F 32.0 °F 87% 29.90 in 10.0 mi East 4.6 mph - N/A   Mostly Cloudy
7:36 PM 35.6 °F 31.7 °F 32.0 °F 87% 29.90 in 10.0 mi East 4.6 mph - N/A   Mostly Cloudy
7:56 PM 35.6 °F 31.7 °F 32.0 °F 87% 29.89 in 10.0 mi East 4.6 mph - N/A   Overcast
8:16 PM 35.6 °F 30.7 °F 32.0 °F 87% 29.89 in 10.0 mi ESE 5.8 mph - N/A   Overcast
8:36 PM 35.6 °F 30.7 °F 32.0 °F 87% 29.88 in 10.0 mi ESE 5.8 mph - N/A   Mostly Cloudy
8:56 PM 35.6 °F 30.7 °F 32.0 °F 87% 29.87 in 10.0 mi East 5.8 mph - N/A   Clear
9:16 PM 35.6 °F 29.9 °F 32.0 °F 87% 29.86 in 10.0 mi East 6.9 mph - N/A   Mostly Cloudy
9:36 PM 35.6 °F 30.7 °F 30.2 °F 81% 29.85 in 10.0 mi East 5.8 mph - N/A   Overcast
9:56 PM 35.6 °F 31.7 °F 32.0 °F 87% 29.84 in 10.0 mi East 4.6 mph - N/A   Overcast
10:16 PM 35.6 °F 32.8 °F 30.2 °F 81% 29.84 in 10.0 mi ENE 3.5 mph - N/A   Overcast
10:36 PM 35.6 °F 30.7 °F 32.0 °F 87% 29.83 in 10.0 mi East 5.8 mph - N/A   Overcast
10:56 PM 35.6 °F 30.7 °F 32.0 °F 87% 29.82 in 10.0 mi East 5.8 mph - N/A   Overcast
11:16 PM 35.6 °F 31.7 °F 32.0 °F 87% 29.81 in 10.0 mi East 4.6 mph - N/A   Overcast
11:36 PM 35.6 °F 31.7 °F 32.0 °F 87% 29.81 in 10.0 mi East 4.6 mph - N/A   Overcast
11:56 PM 35.6 °F 31.7 °F 32.0 °F 87% 29.80 in 10.0 mi ENE 4.6 mph - N/A   Overcast